Time,TemperatureF,DewpointF,PressureIn,WindDirection,WindDirectionDegrees,WindSpeedMPH,WindSpeedGustMPH,Humidity,HourlyPrecipIn,Conditions,Clouds,dailyrainin,SoftwareType,DateUTC
2013-03-10 00:02:00,41.0,39.0,30.24,SSE,151,0.0,0.0,94,0.00,,,0.00,,2013-03-10 05:02:00,
2013-03-10 00:11:00,41.0,39.0,30.24,SSE,151,0.0,0.0,94,0.00,,,0.00,,2013-03-10 05:11:00,
2013-03-10 00:22:00,41.0,40.0,30.25,SSE,152,0.0,1.0,95,0.00,,,0.00,,2013-03-10 05:22:00,
2013-03-10 00:32:00,41.0,40.0,30.25,SSE,152,0.0,0.0,95,0.00,,,0.00,,2013-03-10 05:32:00,
2013-03-10 00:42:00,41.0,40.0,30.24,SSE,151,0.0,0.0,95,0.00,,,0.00,,2013-03-10 05:42:00,
2013-03-10 00:52:00,41.0,40.0,30.24,SSE,151,0.0,0.0,95,0.00,,,0.00,,2013-03-10 05:52:00,
2013-03-10 01:02:00,41.0,40.0,30.24,SSE,151,0.0,0.0,95,0.00,,,0.00,,2013-03-10 06:02:00,
2013-03-10 01:11:00,41.0,40.0,30.24,SSE,151,0.0,0.0,95,0.00,,,0.00,,2013-03-10 06:11:00,
2013-03-10 01:22:00,40.0,39.0,30.24,SSE,151,0.0,0.0,95,0.00,,,0.00,,2013-03-10 06:22:00,
2013-03-10 01:32:00,40.0,39.0,30.24,SSE,151,0.0,0.0,96,0.00,,,0.00,,2013-03-10 06:32:00,
2013-03-10 01:42:00,40.0,39.0,30.24,SSE,151,0.0,0.0,96,0.00,,,0.00,,2013-03-10 06:42:00,
2013-03-10 01:52:00,40.0,39.0,30.24,SSE,152,0.0,0.0,96,0.00,,,0.00,,2013-03-10 06:52:00,
2013-03-10 03:02:00,40.0,39.0,30.23,SSE,151,0.0,0.0,95,0.00,,,0.00,,2013-03-10 07:02:00,
2013-03-10 03:11:00,40.0,39.0,30.23,SSE,151,0.0,0.0,95,0.00,,,0.00,,2013-03-10 07:11:00,
2013-03-10 03:21:00,40.0,39.0,30.23,SSE,151,0.0,0.0,96,0.00,,,0.00,,2013-03-10 07:21:00,
2013-03-10 03:32:00,40.0,39.0,30.23,SSE,151,0.0,0.0,97,0.00,,,0.00,,2013-03-10 07:32:00,
2013-03-10 03:42:00,40.0,39.0,30.22,SSE,151,0.0,1.0,97,0.00,,,0.00,,2013-03-10 07:42:00,
2013-03-10 03:52:00,40.0,39.0,30.22,SSE,151,0.0,1.0,97,0.00,,,0.00,,2013-03-10 07:52:00,
2013-03-10 04:01:00,40.0,39.0,30.22,SE,144,0.0,1.0,97,0.00,,,0.00,,2013-03-10 08:01:00,
2013-03-10 04:11:00,40.0,39.0,30.22,SE,144,0.0,1.0,97,0.00,,,0.00,,2013-03-10 08:11:00,
2013-03-10 04:21:00,40.0,39.0,30.21,SE,145,0.0,1.0,96,0.00,,,0.00,,2013-03-10 08:21:00,
2013-03-10 04:32:00,40.0,39.0,30.20,SE,145,0.0,0.0,97,0.00,,,0.00,,2013-03-10 08:32:00,
2013-03-10 04:42:00,40.0,39.0,30.20,SE,145,0.0,0.0,97,0.00,,,0.00,,2013-03-10 08:42:00,
2013-03-10 04:52:00,40.0,39.0,30.20,SE,145,0.0,0.0,97,0.00,,,0.00,,2013-03-10 08:52:00,
2013-03-10 05:02:00,40.0,39.0,30.20,SE,145,0.0,0.0,97,0.00,,,0.00,,2013-03-10 09:02:00,
2013-03-10 05:11:00,40.0,39.0,30.20,SE,145,0.0,0.0,97,0.00,,,0.00,,2013-03-10 09:11:00,
2013-03-10 05:21:00,40.0,39.0,30.21,SE,145,0.0,0.0,97,0.00,,,0.00,,2013-03-10 09:21:00,
2013-03-10 05:31:00,40.0,39.0,30.21,SE,145,0.0,0.0,97,0.00,,,0.00,,2013-03-10 09:31:00,
2013-03-10 05:42:00,40.0,39.0,30.21,SE,145,0.0,0.0,97,0.00,,,0.00,,2013-03-10 09:42:00,
2013-03-10 05:52:00,40.0,39.0,30.21,SE,145,0.0,0.0,97,0.00,,,0.00,,2013-03-10 09:52:00,
2013-03-10 06:01:00,39.0,38.0,30.22,SE,145,0.0,0.0,97,0.00,,,0.00,,2013-03-10 10:01:00,
2013-03-10 06:11:00,39.0,38.0,30.22,SE,145,0.0,0.0,97,0.00,,,0.00,,2013-03-10 10:11:00,
2013-03-10 06:21:00,39.0,38.0,30.22,SE,145,0.0,2.0,97,0.00,,,0.00,,2013-03-10 10:21:00,
2013-03-10 06:32:00,39.0,38.0,30.22,SE,145,0.0,0.0,97,0.00,,,0.00,,2013-03-10 10:32:00,
2013-03-10 06:42:00,39.0,38.0,30.23,SE,145,0.0,0.0,97,0.00,,,0.00,,2013-03-10 10:42:00,
2013-03-10 06:52:00,39.0,38.0,30.23,SE,145,0.0,0.0,97,0.00,,,0.00,,2013-03-10 10:52:00,
2013-03-10 07:01:00,39.0,38.0,30.23,SE,145,0.0,0.0,97,0.00,,,0.00,,2013-03-10 11:01:00,
2013-03-10 07:12:00,39.0,38.0,30.23,SE,145,0.0,0.0,97,0.00,,,0.00,,2013-03-10 11:12:00,
2013-03-10 07:21:00,39.0,38.0,30.24,SE,145,0.0,0.0,97,0.00,,,0.00,,2013-03-10 11:21:00,
2013-03-10 07:32:00,39.0,38.0,30.23,SE,145,0.0,1.0,97,0.00,,,0.00,,2013-03-10 11:32:00,
2013-03-10 07:42:00,39.0,38.0,30.23,SE,145,0.0,1.0,97,0.00,,,0.00,,2013-03-10 11:42:00,
2013-03-10 07:52:00,39.0,38.0,30.24,SE,145,0.0,0.0,98,0.00,,,0.00,,2013-03-10 11:52:00,
2013-03-10 08:02:00,39.0,38.0,30.24,SE,145,0.0,0.0,98,0.00,,,0.00,,2013-03-10 12:02:00,
2013-03-10 08:11:00,39.0,38.0,30.24,SE,145,0.0,0.0,98,0.00,,,0.00,,2013-03-10 12:11:00,
2013-03-10 08:21:00,39.0,38.0,30.24,SE,143,0.0,1.0,98,0.00,,,0.00,,2013-03-10 12:21:00,
2013-03-10 08:31:00,39.0,38.0,30.24,SE,145,0.0,1.0,98,0.00,,,0.00,,2013-03-10 12:31:00,
2013-03-10 08:42:00,39.0,38.0,30.24,SE,145,0.0,1.0,98,0.00,,,0.00,,2013-03-10 12:42:00,
2013-03-10 08:52:00,40.0,39.0,30.24,SE,145,0.0,1.0,98,0.00,,,0.00,,2013-03-10 12:52:00,
2013-03-10 09:01:00,41.0,40.0,30.25,SE,144,0.0,1.0,98,0.00,,,0.00,,2013-03-10 13:01:00,
2013-03-10 09:11:00,41.0,40.0,30.25,SE,144,0.0,1.0,98,0.00,,,0.00,,2013-03-10 13:11:00,
2013-03-10 09:21:00,44.0,44.0,30.25,NE,56,0.0,3.0,99,0.00,,,0.00,,2013-03-10 13:21:00,
2013-03-10 09:32:00,47.0,47.0,30.25,NE,38,1.0,3.0,99,0.00,,,0.00,,2013-03-10 13:32:00,
2013-03-10 09:42:00,47.0,47.0,30.25,NE,38,1.0,3.0,99,0.00,,,0.00,,2013-03-10 13:42:00,
2013-03-10 09:52:00,51.0,46.0,30.25,ENE,71,2.0,7.0,82,0.00,,,0.00,,2013-03-10 13:52:00,
2013-03-10 10:02:00,53.0,45.0,30.25,ENE,65,3.0,12.0,74,0.00,,,0.00,,2013-03-10 14:02:00,
2013-03-10 10:11:00,53.0,45.0,30.25,ENE,65,3.0,12.0,74,0.00,,,0.00,,2013-03-10 14:11:00,
2013-03-10 10:22:00,56.0,43.0,30.25,SSE,163,4.0,9.0,62,0.00,,,0.00,,2013-03-10 14:22:00,
2013-03-10 10:32:00,57.0,43.0,30.25,North,349,4.0,10.0,59,0.00,,,0.00,,2013-03-10 14:32:00,
2013-03-10 10:42:00,57.0,43.0,30.25,North,349,4.0,10.0,59,0.00,,,0.00,,2013-03-10 14:42:00,
2013-03-10 10:52:00,58.0,44.0,30.25,ENE,57,4.0,13.0,59,0.00,,,0.00,,2013-03-10 14:52:00,
2013-03-10 11:01:00,58.0,44.0,30.26,ENE,62,2.0,8.0,59,0.00,,,0.00,,2013-03-10 15:01:00,
2013-03-10 11:11:00,58.0,44.0,30.26,ENE,62,2.0,8.0,59,0.00,,,0.00,,2013-03-10 15:11:00,
2013-03-10 11:21:00,60.0,43.0,30.26,East,80,6.0,12.0,53,0.00,,,0.00,,2013-03-10 15:21:00,
2013-03-10 11:32:00,61.0,43.0,30.26,ESE,120,3.0,10.0,52,0.00,,,0.00,,2013-03-10 15:32:00,
2013-03-10 11:42:00,61.0,43.0,30.26,ESE,120,3.0,10.0,52,0.00,,,0.00,,2013-03-10 15:42:00,
2013-03-10 11:52:00,62.0,43.0,30.26,SSE,161,5.0,12.0,49,0.00,,,0.00,,2013-03-10 15:52:00,
2013-03-10 12:02:00,62.0,42.0,30.25,NNE,28,4.0,8.0,47,0.00,,,0.00,,2013-03-10 16:02:00,
2013-03-10 12:12:00,62.0,42.0,30.25,NNE,28,4.0,8.0,47,0.00,,,0.00,,2013-03-10 16:12:00,
2013-03-10 12:21:00,62.0,42.0,30.24,NE,49,5.0,12.0,48,0.00,,,0.00,,2013-03-10 16:21:00,
2013-03-10 12:32:00,63.0,42.0,30.24,ENE,78,5.0,10.0,47,0.00,,,0.00,,2013-03-10 16:32:00,
2013-03-10 12:41:00,63.0,42.0,30.24,ENE,78,5.0,10.0,47,0.00,,,0.00,,2013-03-10 16:41:00,
2013-03-10 12:52:00,64.0,43.0,30.25,East,95,5.0,10.0,46,0.00,,,0.00,,2013-03-10 16:52:00,
2013-03-10 13:01:00,65.0,43.0,30.24,East,97,6.0,12.0,44,0.00,,,0.00,,2013-03-10 17:01:00,
2013-03-10 13:11:00,65.0,43.0,30.24,East,97,6.0,12.0,44,0.00,,,0.00,,2013-03-10 17:11:00,
2013-03-10 13:21:00,64.0,43.0,30.24,North,4,3.0,9.0,46,0.00,,,0.00,,2013-03-10 17:21:00,
2013-03-10 13:31:00,64.0,43.0,30.24,North,4,3.0,9.0,46,0.00,,,0.00,,2013-03-10 17:31:00,
2013-03-10 13:41:00,64.0,43.0,30.24,North,4,3.0,9.0,46,0.00,,,0.00,,2013-03-10 17:41:00,
2013-03-10 13:51:00,65.0,41.0,30.23,East,81,4.0,10.0,41,0.00,,,0.00,,2013-03-10 17:51:00,
2013-03-10 14:01:00,64.0,40.0,30.23,SE,142,2.0,12.0,42,0.00,,,0.00,,2013-03-10 18:01:00,
2013-03-10 14:12:00,64.0,40.0,30.23,SE,142,2.0,12.0,42,0.00,,,0.00,,2013-03-10 18:12:00,
2013-03-10 14:22:00,62.0,39.0,30.23,North,8,4.0,10.0,43,0.00,,,0.00,,2013-03-10 18:22:00,
2013-03-10 14:32:00,62.0,40.0,30.22,ESE,111,4.0,9.0,44,0.00,,,0.00,,2013-03-10 18:32:00,
2013-03-10 14:42:00,62.0,40.0,30.22,ESE,111,4.0,9.0,44,0.00,,,0.00,,2013-03-10 18:42:00,
2013-03-10 14:52:00,62.0,40.0,30.22,NE,53,5.0,12.0,45,0.00,,,0.00,,2013-03-10 18:52:00,
2013-03-10 15:01:00,62.0,41.0,30.21,ENE,70,4.0,10.0,46,0.00,,,0.00,,2013-03-10 19:01:00,
2013-03-10 15:11:00,62.0,41.0,30.21,ENE,70,4.0,10.0,46,0.00,,,0.00,,2013-03-10 19:11:00,
2013-03-10 15:22:00,64.0,42.0,30.20,ESE,117,6.0,13.0,45,0.00,,,0.00,,2013-03-10 19:22:00,
2013-03-10 15:32:00,65.0,44.0,30.20,NE,56,2.0,15.0,47,0.00,,,0.00,,2013-03-10 19:32:00,
2013-03-10 15:42:00,65.0,44.0,30.20,NE,56,2.0,15.0,47,0.00,,,0.00,,2013-03-10 19:42:00,
2013-03-10 15:53:00,65.0,45.0,30.20,East,96,6.0,10.0,49,0.00,,,0.00,,2013-03-10 19:53:00,
2013-03-10 16:02:00,65.0,46.0,30.20,NE,52,4.0,12.0,50,0.00,,,0.00,,2013-03-10 20:02:00,
2013-03-10 16:12:00,65.0,46.0,30.20,NE,52,4.0,12.0,50,0.00,,,0.00,,2013-03-10 20:12:00,
2013-03-10 16:22:00,63.0,43.0,30.19,NNE,32,5.0,12.0,48,0.00,,,0.00,,2013-03-10 20:22:00,
2013-03-10 16:32:00,62.0,42.0,30.19,North,8,4.0,10.0,48,0.00,,,0.00,,2013-03-10 20:32:00,
2013-03-10 16:43:00,62.0,42.0,30.19,North,8,4.0,10.0,48,0.00,,,0.00,,2013-03-10 20:43:00,
2013-03-10 16:53:00,62.0,41.0,30.19,NNE,21,2.0,12.0,46,0.00,,,0.00,,2013-03-10 20:53:00,
2013-03-10 17:02:00,62.0,40.0,30.19,SE,143,4.0,9.0,45,0.00,,,0.00,,2013-03-10 21:02:00,
2013-03-10 17:12:00,62.0,40.0,30.19,SE,143,4.0,9.0,45,0.00,,,0.00,,2013-03-10 21:12:00,
2013-03-10 17:23:00,62.0,39.0,30.19,SE,130,2.0,9.0,43,0.00,,,0.00,,2013-03-10 21:23:00,
2013-03-10 17:32:00,62.0,39.0,30.19,NE,34,3.0,10.0,42,0.00,,,0.00,,2013-03-10 21:32:00,
2013-03-10 17:42:00,62.0,39.0,30.19,NE,34,3.0,10.0,42,0.00,,,0.00,,2013-03-10 21:42:00,
2013-03-10 17:53:00,62.0,40.0,30.19,ENE,69,3.0,9.0,45,0.00,,,0.00,,2013-03-10 21:53:00,
2013-03-10 18:03:00,61.0,39.0,30.19,NNE,28,3.0,10.0,44,0.00,,,0.00,,2013-03-10 22:03:00,
2013-03-10 18:12:00,61.0,39.0,30.19,NNE,28,3.0,10.0,44,0.00,,,0.00,,2013-03-10 22:12:00,
2013-03-10 18:22:00,61.0,35.0,30.19,ESE,104,4.0,9.0,37,0.00,,,0.00,,2013-03-10 22:22:00,
2013-03-10 18:32:00,60.0,34.0,30.19,ENE,66,4.0,10.0,37,0.00,,,0.00,,2013-03-10 22:32:00,
2013-03-10 18:43:00,60.0,34.0,30.19,ENE,66,4.0,10.0,37,0.00,,,0.00,,2013-03-10 22:43:00,
2013-03-10 18:53:00,59.0,35.0,30.19,NE,48,3.0,12.0,41,0.00,,,0.00,,2013-03-10 22:53:00,
2013-03-10 19:03:00,58.0,38.0,30.19,East,82,2.0,7.0,47,0.00,,,0.00,,2013-03-10 23:03:00,
2013-03-10 19:12:00,58.0,38.0,30.19,East,82,2.0,7.0,47,0.00,,,0.00,,2013-03-10 23:12:00,
2013-03-10 19:23:00,56.0,39.0,30.20,ESE,115,2.0,9.0,52,0.00,,,0.00,,2013-03-10 23:23:00,
2013-03-10 19:33:00,56.0,40.0,30.20,NE,37,1.0,7.0,55,0.00,,,0.00,,2013-03-10 23:33:00,
2013-03-10 19:42:00,56.0,40.0,30.20,NE,37,1.0,7.0,55,0.00,,,0.00,,2013-03-10 23:42:00,
2013-03-10 19:52:00,55.0,42.0,30.20,NE,42,3.0,7.0,62,0.00,,,0.00,,2013-03-10 23:52:00,
2013-03-10 20:02:00,54.0,43.0,30.20,East,99,2.0,8.0,65,0.00,,,0.00,,2013-03-11 00:02:00,
2013-03-10 20:13:00,54.0,43.0,30.20,East,99,2.0,8.0,65,0.00,,,0.00,,2013-03-11 00:13:00,
2013-03-10 20:23:00,54.0,45.0,30.19,East,97,3.0,10.0,71,0.00,,,0.00,,2013-03-11 00:23:00,
2013-03-10 20:33:00,53.0,45.0,30.19,ENE,60,3.0,10.0,74,0.00,,,0.00,,2013-03-11 00:33:00,
2013-03-10 20:43:00,53.0,45.0,30.19,ENE,60,3.0,10.0,74,0.00,,,0.00,,2013-03-11 00:43:00,
2013-03-10 20:53:00,53.0,46.0,30.20,ENE,68,1.0,7.0,77,0.00,,,0.00,,2013-03-11 00:53:00,
2013-03-10 21:03:00,53.0,46.0,30.20,East,87,2.0,5.0,78,0.00,,,0.00,,2013-03-11 01:03:00,
2013-03-10 21:13:00,53.0,46.0,30.20,East,87,2.0,5.0,78,0.00,,,0.00,,2013-03-11 01:13:00,
2013-03-10 21:23:00,52.0,46.0,30.20,ENE,75,1.0,5.0,81,0.00,,,0.00,,2013-03-11 01:23:00,
2013-03-10 21:32:00,51.0,46.0,30.20,SE,125,1.0,6.0,83,0.00,,,0.00,,2013-03-11 01:32:00,
2013-03-10 21:43:00,51.0,46.0,30.20,SE,125,1.0,6.0,83,0.00,,,0.00,,2013-03-11 01:43:00,
2013-03-10 21:53:00,51.0,46.0,30.21,ENE,62,1.0,3.0,84,0.00,,,0.00,,2013-03-11 01:53:00,
2013-03-10 22:02:00,51.0,47.0,30.21,ENE,77,1.0,3.0,86,0.00,,,0.00,,2013-03-11 02:02:00,
2013-03-10 22:12:00,51.0,47.0,30.21,ENE,77,1.0,3.0,86,0.00,,,0.00,,2013-03-11 02:12:00,
2013-03-10 22:23:00,50.0,46.0,30.21,East,85,0.0,1.0,87,0.00,,,0.00,,2013-03-11 02:23:00,
2013-03-10 22:32:00,50.0,46.0,30.21,East,85,0.0,1.0,87,0.00,,,0.00,,2013-03-11 02:32:00,
2013-03-10 22:42:00,50.0,46.0,30.21,East,85,0.0,1.0,87,0.00,,,0.00,,2013-03-11 02:42:00,
2013-03-10 22:53:00,49.0,46.0,30.21,East,85,0.0,0.0,88,0.00,,,0.00,,2013-03-11 02:53:00,
2013-03-10 23:02:00,49.0,46.0,30.20,East,85,0.0,0.0,89,0.00,,,0.00,,2013-03-11 03:02:00,
2013-03-10 23:12:00,49.0,46.0,30.20,East,85,0.0,0.0,89,0.00,,,0.00,,2013-03-11 03:12:00,
2013-03-10 23:22:00,48.0,45.0,30.20,East,85,0.0,2.0,90,0.00,,,0.00,,2013-03-11 03:22:00,
2013-03-10 23:32:00,48.0,45.0,30.20,East,81,1.0,2.0,90,0.00,,,0.00,,2013-03-11 03:32:00,
2013-03-10 23:42:00,48.0,45.0,30.20,East,81,1.0,2.0,90,0.00,,,0.00,,2013-03-11 03:42:00,
2013-03-10 23:53:00,48.0,45.0,30.19,ENE,76,2.0,3.0,91,0.00,,,0.00,,2013-03-11 03:53:00,